This demonstration page uses our WeatherBlox Daily Observations layout. Learn more.

Hourly Observations for October 20, 2019

Temp ( °F °C ) Dew Point ( °F °C ) Humidity (%) Winds ( mph kmh ) Pressure ( in mb ) Visibility ( mi km ) Precip ( " mm )
12:15 am 00:15 Clear 46 7.8 37 2.7 70 70 SSE 7 11 29.77 1008 10 16.09344 0 0
12:35 am 00:35 Clear 45 7 37 2.5 73 73 SE 8 13 29.74 1007 10 16.09344 0 0
12:55 am 00:55 Clear 46 7.5 37 3 73 73 SSE 8 13 29.74 1007 10 16.09344 0 0
1:15 am 01:15 Clear 44 6.7 37 2.6 75 75 SSE 6 9 29.74 1007 10 16.09344 0 0
1:35 am 01:35 Clear 44 6.8 37 3 77 77 SSE 6 9 29.74 1007 10 16.09344 0 0
1:55 am 01:55 Clear 45 7 37 3 76 76 SSE 7 11 29.74 1007 10 16.09344 0 0
2:15 am 02:15 Clear 44 6.9 37 3 76 76 SSE 7 11 29.74 1007 10 16.09344 0 0
2:35 am 02:35 Clear 44 6.6 37 2.8 77 77 SSE 8 13 29.74 1007 10 16.09344 0 0
2:55 am 02:55 Clear 44 6.6 37 2.6 76 76 SSE 6 9 29.74 1007 10 16.09344 0 0
3:15 am 03:15 Clear 45 7.4 37 2.8 73 73 SSE 12 19 29.71 1006 10 16.09344 0 0
3:35 am 03:35 Clear 46 7.9 37 2.7 70 70 SSE 12 19 29.71 1006 10 16.09344 0 0
3:55 am 03:55 Clear 46 8 37 2.7 69 69 SSE 13 20 29.71 1006 10 16.09344 0 0
4:15 am 04:15 Clear 47 8.6 37 2.6 66 66 SSE 12 19 29.71 1006 10 16.09344 0 0
4:35 am 04:35 Clear 47 8.5 37 2.7 67 67 SSE 13 20 29.68 1005 10 16.09344 0 0
4:55 am 04:55 Clear 48 9 37 2.7 65 65 SE 10 17 29.62 1003 10 16.09344 0 0
5:15 am 05:15 Clear 49 9.4 37 2.7 63 63 SSE 12 19 29.62 1003 10 16.09344 0 0
5:35 am 05:35 Clear 50 10 37 2.5 60 60 SSE 15 24 29.62 1003 10 16.09344 0 0
5:55 am 05:55 Clear 50 10.1 37 2.5 60 60 SSE 14 22 29.62 1003 10 16.09344 0 0
6:15 am 06:15 Clear 50 10.1 37 2.5 60 60 SSE 17 28 29.62 1003 10 16.09344 0 0
6:35 am 06:35 Clear 50 10 37 2.5 60 60 SSE 16 26 29.62 1003 10 16.09344 0 0
6:55 am 06:55 Clear 50 10 37 2.8 61 61 SSE 14 22 29.62 1003 10 16.09344 0 0
7:15 am 07:15 Clear 50 10.2 38 3.1 62 62 SSE 16 26 29.62 1003 10 16.09344 0 0
7:35 am 07:35 Clear 50 10.2 38 3.5 63 63 SSE 14 22 29.59 1002 10 16.09344 0 0
7:55 am 07:55 Sunny 51 10.7 39 3.7 62 62 SSE 17 28 29.59 1002 10 16.09344 0 0
8:15 am 08:15 Sunny 52 11.1 39 3.8 61 61 S 14 22 29.59 1002 10 16.09344 0 0
8:35 am 08:35 Partly Cloudy 53 11.6 39 4 60 60 SSE 20 31 29.59 1002 10 16.09344 0 0
8:55 am 08:55 Sunny 53 11.8 40 4.2 60 60 S 17 28 29.62 1003 10 16.09344 0 0
9:15 am 09:15 Partly Cloudy 54 12 40 4.7 61 61 S 20 31 29.62 1003 10 16.09344 0 0
9:35 am 09:35 Partly Cloudy 54 12.1 40 4.7 61 61 S 16 26 29.62 1003 10 16.09344 0 0
9:55 am 09:55 Partly Cloudy 54 12.4 41 5.1 61 61 S 18 30 29.59 1002 10 16.09344 0 0
10:15 am 10:15 Sunny 55 12.6 41 5.1 61 61 S 20 31 29.59 1002 10 16.09344 0 0
10:35 am 10:35 Sunny 55 13 41 5.2 59 59 S 15 24 29.59 1002 10 16.09344 0 0
10:55 am 10:55 Sunny 56 13.3 41 5.2 58 58 S 23 37 29.59 1002 10 16.09344 0 0
11:15 am 11:15 Sunny 57 13.8 42 5.7 58 58 S 21 33 29.56 1001 10 16.09344 0 0
11:35 am 11:35 Sunny 58 14.4 43 6 57 57 S 24 39 29.59 1002 10 16.09344 0 0
11:55 am 11:55 Sunny 58 14.3 44 6.4 59 59 S 20 31 29.56 1001 10 16.09344 0 0
12:15 pm 12:15 Partly Cloudy 59 14.8 44 6.5 58 58 S 17 28 29.56 1001 10 16.09344 0 0
12:35 pm 12:35 Mostly Cloudy 59 15.1 43 6 55 55 SSW 20 31 29.56 1001 10 16.09344 0 0
12:55 pm 12:55 Cloudy 59 15.2 41 4.9 50 50 SSW 14 22 29.56 1001 10 16.09344 0 0
1:15 pm 13:15 Cloudy 60 15.7 41 5 49 49 SW 12 19 29.5 999 10 16.09344 0 0
1:35 pm 13:35 Mostly Cloudy 62 16.5 40 4.4 45 45 SW 10 17 29.5 999 10 16.09344 0 0
1:55 pm 13:55 Mostly Cloudy 64 17.7 40 4.2 41 41 SW 12 19 29.5 999 10 16.09344 0 0
2:15 pm 14:15 Partly Cloudy 64 17.5 37 2.9 38 38 W 14 22 29.5 999 10 16.09344 0 0
2:35 pm 14:35 Sunny 63 17.2 34 1.1 34 34 W 12 19 29.5 999 10 16.09344 0 0
2:55 pm 14:55 Sunny 63 17 31 -0.8 30 30 WNW 12 19 29.5 999 10 16.09344 0 0
3:15 pm 15:15 Sunny 64 17.7 28 -2.4 25 25 W 21 33 29.5 999 10 16.09344 0 0
3:35 pm 15:35 Sunny 64 17.6 27 -2.9 25 25 W 21 33 29.5 999 10 16.09344 0 0
3:55 pm 15:55 Sunny 64 17.5 26 -3.1 24 24 W 17 28 29.5 999 10 16.09344 0 0
4:15 pm 16:15 Sunny 63 17.1 25 -3.7 24 24 W 21 33 29.5 999 10 16.09344 0 0
4:35 pm 16:35 Sunny 63 17.1 26 -3.5 24 24 WSW 10 17 29.5 999 10 16.09344 0 0
4:55 pm 16:55 Sunny 62 16.6 25 -4 24 24 WSW 16 26 29.5 999 10 16.09344 0 0
5:15 pm 17:15 Partly Cloudy 59 15 24 -4.2 26 26 WSW 20 31 29.53 1000 10 16.09344 0 0
5:35 pm 17:35 Sunny 59 14.8 24 -4.2 27 27 WSW 8 13 29.56 1001 10 16.09344 0 0
5:55 pm 17:55 Sunny 59 15.2 24 -4.2 26 26 WSW 14 22 29.53 1000 10 16.09344 0 0
6:15 pm 18:15 Sunny 59 15 23 -4.8 25 25 WSW 13 20 29.53 1000 10 16.09344 0 0
6:35 pm 18:35 Sunny 57 14 24 -4.3 28 28 SW 8 13 29.53 1000 10 16.09344 0 0
6:55 pm 18:55 Clear 55 12.7 24 -4.6 30 30 SW 8 13 29.53 1000 10 16.09344 0 0
7:15 pm 19:15 Clear 55 12.8 25 -4.1 31 31 WSW 12 19 29.56 1001 10 16.09344 0 0
7:35 pm 19:35 Clear 55 12.6 28 -2.5 35 35 WSW 10 17 29.56 1001 10 16.09344 0 0
7:55 pm 19:55 Clear 54 12.4 28 -2.1 37 37 WSW 9 15 29.56 1001 10 16.09344 0 0
8:15 pm 20:15 Clear 53 11.4 29 -1.4 41 41 WSW 8 13 29.59 1002 10 16.09344 0 0
8:35 pm 20:35 Clear 51 10.7 30 -1.2 44 44 SW 9 15 29.59 1002 10 16.09344 0 0
8:55 pm 20:55 Clear 52 11.3 31 -0.3 45 45 WSW 13 20 29.59 1002 10 16.09344 0 0
9:15 pm 21:15 Clear 50 10.2 33 0.5 51 51 WSW 21 33 29.59 1002 10 16.09344 0 0
9:35 pm 21:35 Clear 48 9.1 33 0.3 54 54 W 21 33 29.59 1002 10 16.09344 0 0
9:55 pm 21:55 Clear 47 8.5 33 0.5 57 57 W 22 35 29.56 1001 10 16.09344 0 0
10:15 pm 22:15 Clear 46 7.8 33 0.5 60 60 W 15 24 29.59 1002 10 16.09344 0 0
10:35 pm 22:35 Clear 46 7.5 33 0.8 63 63 W 18 30 29.59 1002 10 16.09344 0 0
10:55 pm 22:55 Clear 44 6.9 34 1 66 66 W 13 20 29.59 1002 10 16.09344 0 0
11:15 pm 23:15 Clear 44 6.4 35 1.4 71 71 W 16 26 29.59 1002 10 16.09344 0 0
11:35 pm 23:35 Mostly Cloudy 44 6.5 35 1.7 72 72 W 17 28 29.59 1002 10 16.09344 0 0
11:55 pm 23:55 Cloudy 45 7 36 2.2 72 72 W 17 28 29.59 1002 10 16.09344 0 0

Powered by AerisWeather